Weather observations for the past three days for
Buffalo
Metric (Imperial)
Date Time (mdt) Wind (kph) Vis. (km) Weather Sky Cond. Temperature (ºC) Relative Humidity Wind Chill (°C) Heat Index (°C) Pressure Precipitation (cm)
Air Dwpt 6 hour altimeter (cm) sea level (mb) 1 hr 3 hr 6 hr
Max. Min.
08 14:56 NW 30 G 43 0.00 NULL NULL 20 -2.2 22% 75.74 1009.5
08 13:56 NW 20 G 41 0.00 NULL NULL 18.9 -1.7 25% 75.82 1010.7
08 12:56 NW 22 G 39 0.00 NULL NULL 18.3 -2.2 25% 75.84 1011.0
08 11:56 NW 22 0.00 NULL NULL 17.2 -2.2 17.8 5 27% 75.9 1011.7
08 10:56 N 24 G 39 0.00 NULL NULL 16.7 -1.1 30% 75.9 1011.9
08 09:56 N 24 G 35 0.00 NULL NULL 15.6 -0.6 33% 75.9 1011.5
08 08:56 NW 31 G 46 0.00 NULL NULL 13.9 2.2 45% 75.9 1011.6
08 07:56 NW 37 G 52 0.00 Breezy NULL 12.8 3.3 53% 75.84 1010.7
08 06:56 W 31 0.00 NULL NULL 9.4 4.4 71% 6 75.77 1009.8
08 05:56 W 22 0.00 NULL NULL 5 2.2 8.3 3.9 82% 1 75.74 1009.7
08 04:56 W 17 0.00 NULL NULL 4.4 0.6 77% 1 75.72 1009.6
08 03:56 W 19 0.00 NULL NULL 5 -0.6 67% 2 75.72 1009.5
08 02:56 W 17 0.00 NULL NULL 6.1 -0.6 63% 3 75.74 1009.6
08 01:56 W 13 0.00 NULL NULL 5.6 -0.6 65% 3 75.74 1009.9
08 00:56 NW 13 0.00 NULL NULL 6.7 -2.2 53% 4 75.77 1010.0
07 23:56 NW 19 0.00 NULL NULL 7.2 -1.7 18.3 7.2 54% 4 75.77 1010.5
07 22:56 NW 13 0.00 NULL NULL 7.8 -0.6 56% 6 75.77 1010.3
07 21:56 NW 22 0.00 NULL NULL 10.6 -0.6 46% 75.74 1009.9
07 20:56 NW 13 0.00 NULL NULL 10.6 0 48% 75.72 1009.8
07 19:56 NW 15 0.00 NULL NULL 13.3 -0.6 39% 75.67 1009.5
07 18:56 NW 26 0.00 NULL NULL 16.7 -1.1 30% 75.64 1008.9
07 17:56 NW 22 0.00 NULL NULL 18.3 -2.2 18.9 13.9 25% 75.62 1008.7
07 16:56 NW 31 G 39 0.00 NULL NULL 18.3 -1.1 27% 75.62 1008.6
07 15:56 W 19 G 35 0.00 NULL NULL 18.3 -0.6 28% 75.64 1008.8
07 14:56 N 17 0.00 NULL NULL 17.2 -2.8 26% 75.67 1009.1
07 13:56 Vrbl 11 0.00 NULL NULL 17.2 -2.8 26% 75.74 1009.9
07 12:56 Calm 0.00 NULL NULL 15.6 -5.6 23% 75.77 1010.1
07 11:56 Vrbl 7 0.00 NULL NULL 13.9 -6.7 15 -0.6 24% 75.77 1010.6
07 10:56 Vrbl 6 0.00 NULL NULL 13.3 -7.2 24% 75.79 1010.9
07 09:56 E 9 0.00 NULL NULL 12.8 -4.4 30% 75.82 1011.3
07 08:56 E 6 0.00 NULL NULL 9.4 -4.4 38% 75.82 1011.4
07 07:56 SW 7 0.00 NULL NULL 4.4 -3.3 58% 3 75.82 1012.1
07 06:56 W 6 0.00 NULL NULL 2.2 -6.1 55% 75.79 1011.7
07 05:56 W 7 0.00 NULL NULL -0.6 -5 6.7 -1.1 72% -3 75.77 1011.4
07 04:56 W 6 0.00 NULL NULL -1.1 -5 75% 75.74 1011.1
07 03:56 NE 7 0.00 NULL NULL 1.7 -7.2 52% -0 75.74 1010.7
07 02:56 NE 15 0.00 NULL NULL 2.2 -7.2 50% -1 75.72 1010.7
07 01:56 NE 13 0.00 NULL NULL 3.3 -6.1 51% 0 75.72 1010.8
07 00:56 Calm 0.00 NULL NULL 6.7 -6.1 40% 75.74 1010.5
06 23:56 NW 6 0.00 NULL NULL 5.6 -5.6 12.2 5 45% 75.77 1011.1
06 22:56 S 6 0.00 NULL NULL 6.7 -6.1 40% 75.77 1011.3
06 21:56 NE 11 0.00 NULL NULL 6.1 -6.7 40% 4 75.77 1011.4
06 20:56 N 11 0.00 NULL NULL 8.3 -7.2 33% 7 75.79 1011.6
06 19:56 NW 17 0.00 NULL NULL 8.9 -6.1 34% 7 75.79 1012.0
06 18:56 NW 11 0.00 NULL NULL 11.1 -7.2 27% 75.82 1012.6
06 17:56 W 22 G 35 0.00 NULL NULL 12.2 -8.3 13.3 8.9 23% 75.84 1013.1
06 16:56 W 28 G 43 0.00 NULL NULL 11.7 -9.4 22% 75.9 1013.7
06 15:56 W 26 G 41 0.00 NULL NULL 12.2 -8.3 23% 75.95 1014.5
06 14:56 NW 26 G 43 0.00 NULL NULL 11.1 -7.8 26% 76.05 1015.9
06 13:56 W 35 G 48 0.00 Breezy NULL 10 -8.9 26% 7 76.1 1016.7
06 12:56 W 30 G 43 0.00 NULL NULL 10 -8.3 27% 7 76.15 1017.4
06 11:56 NW 26 G 39 0.00 NULL NULL 8.9 -9.4 8.9 -5.6 27% 6 76.25 1018.5
06 10:56 W 20 G 41 0.00 NULL NULL 7.8 -9.4 29% 5 76.28 1019.0
06 09:56 W 28 G 48 0.00 NULL NULL 7.2 -10 29% 3 76.3 1019.3
06 08:56 NW 28 0.00 NULL NULL 6.1 -8.3 35% 2 76.33 1019.5
06 07:56 W 28 G 35 0.00 NULL NULL 2.8 -7.2 48% -2 76.35 1020.1
06 06:56 W 15 0.00 NULL NULL -2.8 -6.7 75% -7 76.35 1020.7
06 05:56 W 15 0.00 NULL NULL -5.6 -8.9 -1.7 -6.1 78% -11 76.33 1020.6
06 04:56 W 15 0.00 NULL NULL -5.6 -8.9 78% -11 76.33 1020.2
06 03:56 W 13 0.00 NULL NULL -4.4 -8.9 71% -9 76.3 1020.1
06 02:56 W 15 0.00 NULL NULL -4.4 -8.3 75% -9 76.3 1020.0
06 01:56 W 19 0.00 NULL NULL -3.3 -8.3 69% -9 76.3 1019.7
06 00:56 NW 19 0.00 NULL NULL -3.3 -8.3 69% -9 76.3 1020.1
05 23:56 NW 13 0.00 NULL NULL -1.7 -8.3 5.6 -2.2 61% -6 76.3 1019.8
05 22:56 NW 11 0.00 NULL NULL -0.6 -8.9 54% -4 76.3 1019.7
05 21:56 N 17 0.00 NULL NULL 1.7 -7.8 50% -2 76.3 1019.4
05 20:56 NW 15 0.00 NULL NULL 3.3 -8.3 43% 0 76.28 1018.9
05 19:56 NW 22 0.00 NULL NULL 3.3 -7.8 44% -1 76.2 1017.8
05 18:56 NW 30 0.00 NULL NULL 5 -8.9 36% 0 76.15 1017.6
05 17:56 NW 31 0.00 NULL NULL 5.6 -8.9 7.2 5 35% 1 76.15 1017.6
05 16:56 NW 41 G 52 0.00 Breezy NULL 7.2 -7.8 34% 3 76.1 1016.9
05 15:56 N 39 G 59 0.00 Breezy NULL 6.1 -8.3 35% 1 76.1 1017.2
Date Time (mdt) Wind (kph) Vis. (km) Weather Sky Cond. Air Dwpt Max. Min. Relative Humidity Wind Chill (°C) Heat Index (°C) altimeter (cm) sea level (mb) 1 hr 3 hr 6 hr
6 hour
Temperature (ºC) Pressure Precipitation (cm)